Content
SEND FEEDBACK

Daily
Averages
Monthly
Summary
United States of America

ANN ARBOR, MICHIGAN


Home > North America > United States > Michigan
Elevation: 759 feet     Latitude: 42 17N     Longitude: 083 43W

WEATHER
 
SELECT A DAY
Number of Records: 208,012;   Date Range: 1/1/95 - 11/22/14
 
SHARE

PRINT THIS DATA

[ ← Previous Day ]
WEATHER ALMANAC - FEBRUARY 8, 2013
[ Next Day → ]
[ °C ]   °F
Weather ElementAverageHighLow
Temperature27.6 °F30.2 °F (1:14 am)18 °F (11:53 pm)
Dewpoint22.9 °F28.4 °F (1:14 am)14 °F (8:53 pm)
Humidity82.8 %93 % (1:14 am)63 % (5:53 pm)
Barometer29.97 in30.37 in (11:53 pm)29.76 in (4:00 am)
Wind Speed12.5 mph23 mph (8:53 am)
Wind Gust33.4 mph (10:53 am)
Weather ElementAverage
Visibility5.5 mi
Wind DirectionWNW (282.5 °)

Weather ElementTotal
Precipitation0.39 in
Heating Degree Days40.9 (Base 65)
Averaged from 40 records on February 8, 2013
WEATHER CONDITIONS BREAKOUT
WIND DIRECTION BREAKOUT
WEATHER BY HOUR - FEBRUARY 8, 2013
[ °C ]   °F
Local TimeTemperatureDewpointHumidityBarometerVisibilityWind DirectionWind SpeedGust SpeedPrecipitationEventsConditions
1:14 AM30.2 °F28.4 °F93 %29.79 in4.0 miENE (60°)11.5 mph0.02 inRainLight Freezing Rain
1:53 AM30.0 °F28.0 °F92 %29.80 in2.5 miENE (70°)11.5 mph18.4 mph0.06 inSnowLight Snow
2:07 AM30.2 °F28.4 °F93 %29.77 in1.8 miENE (70°)10.4 mph0.02 inSnowLight Snow
2:14 AM30.2 °F28.4 °F93 %29.77 in2.5 miENE (70°)9.2 mph0.02 inSnowLight Snow
2:30 AM30.2 °F28.4 °F93 %29.77 in1.5 miNE (50°)6.9 mph0.03 inSnowLight Snow
2:42 AM30.2 °F26.6 °F86 %29.77 in1.2 miNE (50°)8.1 mph0.04 inSnowLight Snow
2:53 AM30.0 °F28.0 °F92 %29.79 in1.0 miENE (60°)5.8 mph0.05 inSnowLight Snow
3:53 AM30.0 °F28.0 °F92 %29.78 in1.2 miNorth (10°)6.9 mph0.02 inSnowLight Snow
4:00 AM30.2 °F28.4 °F93 %29.76 in1.5 miNorth (10°)6.9 mph0.01 inSnowLight Snow
4:16 AM30.2 °F28.4 °F93 %29.76 in2.5 miNorth (360°)8.1 mph0.01 inSnowLight Snow
4:31 AM30.2 °F26.6 °F86 %29.77 in3.0 miNorth (350°)8.1 mph0.01 inSnowLight Snow
4:51 AM30.2 °F26.6 °F86 %29.77 in5.0 miNorth (350°)8.1 mph0.01 inSnowLight Snow
4:53 AM30.0 °F27.0 °F88 %29.80 in5.0 miNorth (350°)6.9 mph0.01 inSnowLight Snow
5:53 AM28.9 °F27.0 °F92 %29.82 in7.0 miNNW (340°)12.7 mphOvercast
6:53 AM28.9 °F27.0 °F92 %29.85 in6.0 miNorth (360°)12.7 mph0.00 inSnowLight Snow
7:31 AM30.2 °F26.6 °F86 %29.85 in2.5 miNorth (350°)13.8 mph24.2 mph0.02 inSnowLight Snow
7:53 AM28.9 °F26.1 °F89 %29.89 in1.8 miNorth (360°)17.3 mph25.3 mph0.02 inSnowLight Snow
8:02 AM28.4 °F26.6 °F93 %29.87 in1.0 miNorth (350°)16.1 mph26.5 mph0.00 inSnowLight Snow
8:26 AM28.4 °F24.8 °F86 %29.88 in1.5 miNNW (340°)17.3 mph26.5 mph0.01 inSnowLight Snow
8:35 AM28.4 °F24.8 °F86 %29.89 in1.2 miNorth (350°)20.7 mph26.5 mph0.01 inSnowLight Snow
8:47 AM28.4 °F24.8 °F86 %29.89 in1.5 miNorth (350°)16.1 mph27.6 mph0.01 inSnowLight Snow
8:53 AM28.0 °F25.0 °F88 %29.93 in1.5 miNorth (360°)23.0 mph31.1 mph0.01 inSnowLight Snow
9:05 AM28.4 °F24.8 °F86 %29.91 in2.0 miNorth (360°)17.3 mph28.8 mph0.00 inSnowLight Snow
9:21 AM28.4 °F24.8 °F86 %29.92 in4.0 miNorth (360°)13.8 mph26.5 mph0.00 inOvercast
9:53 AM28.9 °F23.0 °F78 %29.97 in9.0 miNorth (360°)16.1 mph31.1 mph0.00 inOvercast
10:53 AM27.0 °F21.0 °F78 %30.02 in8.0 miNNW (340°)20.7 mph33.4 mphOvercast
11:53 AM26.1 °F19.0 °F75 %30.07 in10.0 miNorth (360°)19.6 mph32.2 mphOvercast
12:53 PM26.1 °F19.0 °F75 %30.10 in10.0 miNNW (340°)18.4 mph31.1 mphOvercast
1:53 PM25.0 °F18.0 °F75 %30.12 in10.0 miNNW (340°)17.3 mph27.6 mphOvercast
2:53 PM26.1 °F18.0 °F71 %30.14 in10.0 miNNW (340°)19.6 mph28.8 mphOvercast
3:53 PM27.0 °F18.0 °F69 %30.16 in10.0 miNorth (360°)18.4 mph24.2 mphOvercast
4:53 PM27.0 °F18.0 °F69 %30.20 in10.0 miNorth (360°)12.7 mph20.7 mphOvercast
5:29 PM28.4 °F17.6 °F64 %30.19 in10.0 miNorth (350°)13.8 mph21.9 mphOvercast
5:53 PM27.0 °F16.0 °F63 %30.23 in10.0 miNorth (350°)11.5 mphMostly Cloudy
6:53 PM25.0 °F15.1 °F66 %30.26 in10.0 miNorth (360°)8.1 mphClear
7:53 PM24.1 °F15.1 °F69 %30.29 in10.0 miNorth (360°)11.5 mph19.6 mphClear
8:53 PM21.9 °F14.0 °F72 %30.31 in10.0 miNorth (360°)6.9 mphClear
9:53 PM21.0 °F14.0 °F74 %30.34 in10.0 miNNW (340°)5.8 mphClear
10:53 PM19.0 °F14.0 °F81 %30.35 in10.0 miNW (310°)3.5 mphClear
11:53 PM18.0 °F14.0 °F84 %30.37 in10.0 miNNW (330°)5.8 mphClear
Hourly data recorded from KARB, located miles away from Ann Arbor, Michigan







STORIES FROM OUR PARTNERS